contact:dominique.lefevre@mio.osupytheas.fr, maurice.libes@osupytheas.fr, didier.mallarino@osupytheas.fr
Project:EMSO http://www.emso-fr.org/EMSO-France
Depth: 2436.0 m
Title:EMSO Ligure Ouest : Data MII capteur CSTAR
DateTime,Latitude,Longitude,Instrument_Serial,Reference_Counts,Signal_Counts,Corrected_Signal_raw_counts,Calculated_Beam_c_inverse_meters,Internal_thermistor_counts
DateTime,Latitude,Longitude,Instrument_Serial,Reference_Counts,Signal_Counts,Corrected_Signal_raw_counts,Calculated_Beam_c_inverse_meters,Internal_thermistor_counts
2023-12-10T00:01:43,42.805,6.029,CST-1368DR,4088,4211,10914,01.433,553
2023-12-10T00:04:45,42.805,6.029,CST-1368DR,4088,4231,10965,01.414,553
2023-12-10T00:07:46,42.805,6.029,CST-1368DR,4088,4210,10911,01.434,553
2023-12-10T00:10:48,42.805,6.029,CST-1368DR,4088,4221,10940,01.423,553
2023-12-10T00:13:50,42.805,6.029,CST-1368DR,4088,4213,10920,01.431,553
2023-12-10T00:16:51,42.805,6.029,CST-1368DR,4088,4210,10912,01.434,553
2023-12-10T00:19:53,42.805,6.029,CST-1368DR,4088,4230,10963,01.415,553
2023-12-10T00:22:54,42.805,6.029,CST-1368DR,4088,4218,10933,01.426,553
2023-12-10T00:25:56,42.805,6.029,CST-1368DR,4088,4216,10926,01.429,553
2023-12-10T00:28:57,42.805,6.029,CST-1368DR,4088,4214,10922,01.430,553
2023-12-10T00:31:59,42.805,6.029,CST-1368DR,4088,4214,10921,01.430,553
2023-12-10T00:35:01,42.805,6.029,CST-1368DR,4088,4213,10919,01.431,553
2023-12-10T00:38:02,42.805,6.029,CST-1368DR,4088,4216,10926,01.429,553
2023-12-10T00:41:04,42.805,6.029,CST-1368DR,4088,4210,10910,01.434,553
2023-12-10T00:44:05,42.805,6.029,CST-1368DR,4088,4222,10943,01.422,553
2023-12-10T00:47:07,42.805,6.029,CST-1368DR,4088,4223,10946,01.421,553
2023-12-10T00:50:09,42.805,6.029,CST-1368DR,4088,4223,10944,01.422,553
2023-12-10T00:53:10,42.805,6.029,CST-1368DR,4088,4212,10917,01.432,553
2023-12-10T00:56:12,42.805,6.029,CST-1368DR,4088,4216,10926,01.429,553
2023-12-10T00:59:13,42.805,6.029,CST-1368DR,4088,4217,10930,01.427,553
2023-12-10T01:02:15,42.805,6.029,CST-1368DR,4088,4234,10973,01.411,553
2023-12-10T01:05:16,42.805,6.029,CST-1368DR,4088,4222,10943,01.422,553
2023-12-10T01:08:18,42.805,6.029,CST-1368DR,4088,4219,10934,01.426,553
2023-12-10T01:11:20,42.805,6.029,CST-1368DR,4088,4221,10940,01.423,553
2023-12-10T01:14:21,42.805,6.029,CST-1368DR,4088,4216,10927,01.428,553
2023-12-10T01:17:23,42.805,6.029,CST-1368DR,4088,4213,10920,01.431,553
2023-12-10T01:20:24,42.805,6.029,CST-1368DR,4088,4224,10947,01.421,553
2023-12-10T01:23:26,42.805,6.029,CST-1368DR,4088,4216,10928,01.428,553
2023-12-10T01:26:27,42.805,6.029,CST-1368DR,4088,4231,10965,01.414,553
2023-12-10T01:29:29,42.805,6.029,CST-1368DR,4088,4221,10941,01.423,553
2023-12-10T01:32:31,42.805,6.029,CST-1368DR,4088,4224,10946,01.421,553
2023-12-10T01:35:32,42.805,6.029,CST-1368DR,4088,4219,10935,01.425,553
2023-12-10T01:38:34,42.805,6.029,CST-1368DR,4088,4218,10931,01.427,553
2023-12-10T01:41:35,42.805,6.029,CST-1368DR,4088,4219,10934,01.426,553
2023-12-10T01:44:37,42.805,6.029,CST-1368DR,4088,4211,10913,01.433,553
2023-12-10T01:47:38,42.805,6.029,CST-1368DR,4088,4224,10946,01.421,553
2023-12-10T01:50:40,42.805,6.029,CST-1368DR,4088,4224,10948,01.421,553
2023-12-10T01:53:42,42.805,6.029,CST-1368DR,4088,4219,10934,01.426,553
2023-12-10T01:56:43,42.805,6.029,CST-1368DR,4088,4218,10932,01.426,553
2023-12-10T01:59:45,42.805,6.029,CST-1368DR,4088,4225,10951,01.419,553
2023-12-10T02:02:46,42.805,6.029,CST-1368DR,4088,4220,10937,01.425,553
2023-12-10T02:05:48,42.805,6.029,CST-1368DR,4088,4224,10947,01.421,553
2023-12-10T02:08:50,42.805,6.029,CST-1368DR,4088,4212,10917,01.432,553
2023-12-10T02:11:51,42.805,6.029,CST-1368DR,4088,4218,10931,01.427,553
2023-12-10T02:14:53,42.805,6.029,CST-1368DR,4088,4221,10939,01.424,553
2023-12-10T02:17:54,42.805,6.029,CST-1368DR,4088,4219,10934,01.426,553
2023-12-10T02:20:56,42.805,6.029,CST-1368DR,4088,4217,10930,01.427,553
2023-12-10T02:23:57,42.805,6.029,CST-1368DR,4088,4227,10954,01.418,553
2023-12-10T02:26:59,42.805,6.029,CST-1368DR,4088,4230,10963,01.415,553
2023-12-10T02:30:01,42.805,6.029,CST-1368DR,4088,4223,10946,01.421,553
2023-12-10T02:33:02,42.805,6.029,CST-1368DR,4088,4232,10968,01.413,553
2023-12-10T02:36:04,42.805,6.029,CST-1368DR,4088,4234,10973,01.411,553
2023-12-10T02:39:05,42.805,6.029,CST-1368DR,4088,4238,10983,01.408,553
2023-12-10T02:42:07,42.805,6.029,CST-1368DR,4088,4234,10972,01.412,553
2023-12-10T02:45:08,42.805,6.029,CST-1368DR,4088,4229,10960,01.416,553
2023-12-10T02:48:10,42.805,6.029,CST-1368DR,4088,4234,10972,01.412,553
2023-12-10T02:51:12,42.805,6.029,CST-1368DR,4088,4234,10974,01.411,553
2023-12-10T02:54:13,42.805,6.029,CST-1368DR,4088,4233,10970,01.413,553
2023-12-10T02:57:15,42.805,6.029,CST-1368DR,4088,4228,10958,01.417,553
2023-12-10T03:00:16,42.805,6.029,CST-1368DR,4088,4233,10972,01.412,553
2023-12-10T03:03:18,42.805,6.029,CST-1368DR,4088,4224,10947,01.421,553
2023-12-10T03:06:19,42.805,6.029,CST-1368DR,4088,4232,10969,01.413,553
2023-12-10T03:09:21,42.805,6.029,CST-1368DR,4088,4226,10954,01.418,553
2023-12-10T03:12:23,42.805,6.029,CST-1368DR,4088,4239,10985,01.407,553
2023-12-10T03:15:24,42.805,6.029,CST-1368DR,4088,4238,10983,01.408,553
2023-12-10T03:18:26,42.805,6.029,CST-1368DR,4088,4237,10981,01.409,553
2023-12-10T03:21:27,42.805,6.029,CST-1368DR,4088,4233,10970,01.413,553
2023-12-10T03:24:29,42.805,6.029,CST-1368DR,4088,4241,10991,01.405,553
2023-12-10T03:27:31,42.805,6.029,CST-1368DR,4088,4235,10977,01.410,553
2023-12-10T03:30:32,42.805,6.029,CST-1368DR,4088,4233,10971,01.412,553
2023-12-10T03:33:34,42.805,6.029,CST-1368DR,4088,4234,10973,01.411,553
2023-12-10T03:36:35,42.805,6.029,CST-1368DR,4088,4236,10979,01.409,553
2023-12-10T03:39:37,42.805,6.029,CST-1368DR,4088,4241,10991,01.405,553
2023-12-10T03:42:38,42.805,6.029,CST-1368DR,4088,4240,10990,01.405,553
2023-12-10T03:45:40,42.805,6.029,CST-1368DR,4088,4242,10994,01.404,553
2023-12-10T03:48:42,42.805,6.029,CST-1368DR,4088,4239,10987,01.406,553
2023-12-10T03:51:43,42.805,6.029,CST-1368DR,4088,4241,10991,01.405,553
2023-12-10T03:54:45,42.805,6.029,CST-1368DR,4088,4239,10987,01.406,553
2023-12-10T03:57:46,42.805,6.029,CST-1368DR,4088,4246,11004,01.400,553
2023-12-10T04:00:48,42.805,6.029,CST-1368DR,4088,4239,10987,01.406,553
2023-12-10T04:03:49,42.805,6.029,CST-1368DR,4088,4236,10978,01.410,553
2023-12-10T04:06:51,42.805,6.029,CST-1368DR,4088,4236,10978,01.410,553
2023-12-10T04:09:53,42.805,6.029,CST-1368DR,4088,4242,10994,01.404,553
2023-12-10T04:12:54,42.805,6.029,CST-1368DR,4088,4229,10961,01.416,553
2023-12-10T04:15:56,42.805,6.029,CST-1368DR,4088,4230,10963,01.415,553
2023-12-10T04:18:57,42.805,6.029,CST-1368DR,4088,4238,10983,01.408,553
2023-12-10T04:21:59,42.805,6.029,CST-1368DR,4088,4230,10963,01.415,553
2023-12-10T04:25:01,42.805,6.029,CST-1368DR,4088,4236,10979,01.409,553
2023-12-10T04:28:02,42.805,6.029,CST-1368DR,4088,4238,10983,01.408,553
2023-12-10T04:31:04,42.805,6.029,CST-1368DR,4088,4236,10978,01.410,553
2023-12-10T04:34:05,42.805,6.029,CST-1368DR,4088,4234,10972,01.412,553
2023-12-10T04:37:07,42.805,6.029,CST-1368DR,4088,4229,10959,01.417,553
2023-12-10T04:40:08,42.805,6.029,CST-1368DR,4088,4229,10960,01.416,553
2023-12-10T04:43:10,42.805,6.029,CST-1368DR,4088,4223,10945,01.422,553
2023-12-10T04:46:12,42.805,6.029,CST-1368DR,4088,4231,10967,01.414,553
2023-12-10T04:49:13,42.805,6.029,CST-1368DR,4088,4224,10948,01.421,553
2023-12-10T04:52:15,42.805,6.029,CST-1368DR,4088,4226,10952,01.419,553
2023-12-10T04:55:16,42.805,6.029,CST-1368DR,4088,4218,10932,01.426,553
2023-12-10T04:58:18,42.805,6.029,CST-1368DR,4088,4212,10917,01.432,553
2023-12-10T05:01:19,42.805,6.029,CST-1368DR,4088,4217,10930,01.427,553
2023-12-10T05:04:21,42.805,6.029,CST-1368DR,4088,4222,10943,01.422,553
2023-12-10T05:07:23,42.805,6.029,CST-1368DR,4088,4198,10879,01.446,553
2023-12-10T05:10:24,42.805,6.029,CST-1368DR,4088,4207,10902,01.437,553
2023-12-10T05:13:26,42.805,6.029,CST-1368DR,4088,4206,10901,01.438,553
2023-12-10T05:16:27,42.805,6.029,CST-1368DR,4088,4212,10916,01.432,553
2023-12-10T05:19:29,42.805,6.029,CST-1368DR,4088,4219,10934,01.426,553
2023-12-10T05:22:31,42.805,6.029,CST-1368DR,4088,4210,10911,01.434,553
2023-12-10T05:25:32,42.805,6.029,CST-1368DR,4088,4183,10842,01.459,553
2023-12-10T05:28:34,42.805,6.029,CST-1368DR,4088,4214,10922,01.430,553
2023-12-10T05:31:36,42.805,6.029,CST-1368DR,4088,4212,10915,01.433,553
2023-12-10T05:34:38,42.805,6.029,CST-1368DR,4088,4213,10918,01.432,553
2023-12-10T05:37:39,42.805,6.029,CST-1368DR,4088,4221,10939,01.424,553
2023-12-10T05:40:41,42.805,6.029,CST-1368DR,4088,4243,10996,01.403,553
2023-12-10T05:43:42,42.805,6.029,CST-1368DR,4088,4221,10939,01.424,553
2023-12-10T05:46:44,42.805,6.029,CST-1368DR,4088,4227,10956,01.418,553
2023-12-10T05:49:45,42.805,6.029,CST-1368DR,4088,4252,11021,01.394,553
2023-12-10T05:52:47,42.805,6.029,CST-1368DR,4088,4217,10930,01.427,553
2023-12-10T05:55:49,42.805,6.029,CST-1368DR,4088,4226,10953,01.419,553
2023-12-10T05:58:50,42.805,6.029,CST-1368DR,4088,4237,10981,01.409,553
2023-12-10T06:01:52,42.805,6.029,CST-1368DR,4088,4220,10936,01.425,553
2023-12-10T06:04:53,42.805,6.029,CST-1368DR,4088,4214,10921,01.430,553
2023-12-10T06:07:55,42.805,6.029,CST-1368DR,4088,4216,10928,01.428,553
2023-12-10T06:10:56,42.805,6.029,CST-1368DR,4088,4225,10951,01.419,553
2023-12-10T06:13:58,42.805,6.029,CST-1368DR,4088,4247,11007,01.399,553
2023-12-10T06:17:00,42.805,6.029,CST-1368DR,4088,4218,10932,01.426,553
2023-12-10T06:20:01,42.805,6.029,CST-1368DR,4088,4215,10924,01.429,553
2023-12-10T06:23:03,42.805,6.029,CST-1368DR,4088,4222,10942,01.423,553
2023-12-10T06:26:04,42.805,6.029,CST-1368DR,4088,4196,10876,01.447,553
2023-12-10T06:29:06,42.805,6.029,CST-1368DR,4088,4214,10921,01.430,553
2023-12-10T06:32:08,42.805,6.029,CST-1368DR,4088,4199,10883,01.444,553
2023-12-10T06:35:09,42.805,6.029,CST-1368DR,4088,4209,10908,01.435,553
2023-12-10T06:38:11,42.805,6.029,CST-1368DR,4088,4209,10908,01.435,553
2023-12-10T06:41:12,42.805,6.029,CST-1368DR,4088,4202,10891,01.441,553
2023-12-10T06:44:14,42.805,6.029,CST-1368DR,4088,4208,10906,01.436,553
2023-12-10T06:47:15,42.805,6.029,CST-1368DR,4088,4223,10945,01.422,553
2023-12-10T06:50:17,42.805,6.029,CST-1368DR,4088,4202,10891,01.441,553
2023-12-10T06:53:19,42.805,6.029,CST-1368DR,4088,4231,10965,01.414,553
2023-12-10T06:56:20,42.805,6.029,CST-1368DR,4088,4200,10884,01.444,553
2023-12-10T06:59:22,42.805,6.029,CST-1368DR,4088,4207,10903,01.437,553
2023-12-10T07:02:23,42.805,6.029,CST-1368DR,4088,4219,10935,01.425,553
2023-12-10T07:05:25,42.805,6.029,CST-1368DR,4088,4213,10919,01.431,553
2023-12-10T07:08:26,42.805,6.029,CST-1368DR,4088,4216,10927,01.428,553
2023-12-10T07:11:28,42.805,6.029,CST-1368DR,4088,4202,10889,01.442,553
2023-12-10T07:14:30,42.805,6.029,CST-1368DR,4088,4212,10917,01.432,553
2023-12-10T07:17:31,42.805,6.029,CST-1368DR,4088,4200,10884,01.444,553
2023-12-10T07:20:33,42.805,6.029,CST-1368DR,4088,4217,10930,01.427,553
2023-12-10T07:23:34,42.805,6.029,CST-1368DR,4088,4209,10910,01.434,553
2023-12-10T07:26:36,42.805,6.029,CST-1368DR,4088,4204,10896,01.440,553
2023-12-10T07:29:38,42.805,6.029,CST-1368DR,4088,4206,10900,01.438,553
2023-12-10T07:32:39,42.805,6.029,CST-1368DR,4088,4216,10927,01.428,553
2023-12-10T07:35:41,42.805,6.029,CST-1368DR,4088,4225,10949,01.420,553
2023-12-10T07:38:42,42.805,6.029,CST-1368DR,4088,4212,10917,01.432,553
2023-12-10T07:41:44,42.805,6.029,CST-1368DR,4088,4194,10869,01.450,553
2023-12-10T07:44:46,42.805,6.029,CST-1368DR,4088,4206,10900,01.438,553
2023-12-10T07:47:47,42.805,6.029,CST-1368DR,4088,4207,10903,01.437,553
2023-12-10T07:50:49,42.805,6.029,CST-1368DR,4088,4199,10882,01.445,553
2023-12-10T07:53:50,42.805,6.029,CST-1368DR,4088,4225,10949,01.420,553
2023-12-10T07:56:52,42.805,6.029,CST-1368DR,4088,4209,10908,01.435,553
2023-12-10T07:59:53,42.805,6.029,CST-1368DR,4088,4211,10913,01.433,553
2023-12-10T08:02:55,42.805,6.029,CST-1368DR,4088,4208,10906,01.436,553
2023-12-10T08:05:57,42.805,6.029,CST-1368DR,4088,4200,10885,01.444,553
2023-12-10T08:08:58,42.805,6.029,CST-1368DR,4088,4201,10888,01.443,553
2023-12-10T08:12:00,42.805,6.029,CST-1368DR,4088,4204,10896,01.440,553
2023-12-10T08:15:01,42.805,6.029,CST-1368DR,4088,4196,10874,01.448,553
2023-12-10T08:18:03,42.805,6.029,CST-1368DR,4088,4208,10906,01.436,553
2023-12-10T08:21:04,42.805,6.029,CST-1368DR,4088,4209,10908,01.435,553
2023-12-10T08:24:06,42.805,6.029,CST-1368DR,4088,4226,10952,01.419,553
2023-12-10T08:27:08,42.805,6.029,CST-1368DR,4088,4210,10912,01.434,553
2023-12-10T08:30:09,42.805,6.029,CST-1368DR,4088,4205,10899,01.438,553
2023-12-10T08:33:11,42.805,6.029,CST-1368DR,4088,4211,10913,01.433,553
2023-12-10T08:36:12,42.805,6.029,CST-1368DR,4088,4215,10925,01.429,553
2023-12-10T08:39:14,42.805,6.029,CST-1368DR,4088,4220,10936,01.425,553
2023-12-10T08:42:16,42.805,6.029,CST-1368DR,4088,4205,10899,01.438,553
2023-12-10T08:45:17,42.805,6.029,CST-1368DR,4088,4225,10950,01.420,553
2023-12-10T08:48:19,42.805,6.029,CST-1368DR,4088,4225,10951,01.419,553
2023-12-10T08:51:20,42.805,6.029,CST-1368DR,4088,4228,10958,01.417,553
2023-12-10T08:54:22,42.805,6.029,CST-1368DR,4088,4230,10963,01.415,553
2023-12-10T08:57:23,42.805,6.029,CST-1368DR,4088,4225,10951,01.419,553
2023-12-10T09:00:25,42.805,6.029,CST-1368DR,4088,4226,10954,01.418,553
2023-12-10T09:03:27,42.805,6.029,CST-1368DR,4088,4222,10943,01.422,553
2023-12-10T09:06:28,42.805,6.029,CST-1368DR,4088,4223,10945,01.422,553
2023-12-10T09:09:30,42.805,6.029,CST-1368DR,4088,4229,10960,01.416,553
2023-12-10T09:12:31,42.805,6.029,CST-1368DR,4088,4229,10959,01.417,553
2023-12-10T09:15:33,42.805,6.029,CST-1368DR,4088,4231,10967,01.414,553
2023-12-10T09:18:34,42.805,6.029,CST-1368DR,4088,4226,10952,01.419,553
2023-12-10T09:21:36,42.805,6.029,CST-1368DR,4088,4217,10928,01.428,553
2023-12-10T09:24:38,42.805,6.029,CST-1368DR,4088,4203,10892,01.441,553
2023-12-10T09:27:39,42.805,6.029,CST-1368DR,4088,4214,10922,01.430,553
2023-12-10T09:30:42,42.805,6.029,CST-1368DR,4088,4215,10924,01.429,553
2023-12-10T09:33:44,42.805,6.029,CST-1368DR,4088,4224,10948,01.421,552
2023-12-10T09:36:46,42.805,6.029,CST-1368DR,4088,4213,10919,01.431,553
2023-12-10T09:39:47,42.805,6.029,CST-1368DR,4088,4216,10928,01.428,553
2023-12-10T09:42:49,42.805,6.029,CST-1368DR,4088,4211,10914,01.433,553
2023-12-10T09:45:50,42.805,6.029,CST-1368DR,4088,4235,10975,01.411,553
2023-12-10T09:48:52,42.805,6.029,CST-1368DR,4088,4215,10925,01.429,553
2023-12-10T09:51:53,42.805,6.029,CST-1368DR,4088,4225,10951,01.419,553
2023-12-10T09:54:55,42.805,6.029,CST-1368DR,4088,4226,10953,01.419,553
2023-12-10T09:57:57,42.805,6.029,CST-1368DR,4088,4238,10984,01.407,553
2023-12-10T10:00:58,42.805,6.029,CST-1368DR,4088,4228,10958,01.417,553
2023-12-10T10:04:00,42.805,6.029,CST-1368DR,4088,4220,10937,01.425,553
2023-12-10T10:07:01,42.805,6.029,CST-1368DR,4088,4227,10956,01.418,553
2023-12-10T10:10:03,42.805,6.029,CST-1368DR,4088,4236,10978,01.410,553
2023-12-10T10:13:04,42.805,6.029,CST-1368DR,4088,4227,10956,01.418,553
2023-12-10T10:16:06,42.805,6.029,CST-1368DR,4088,4223,10944,01.422,553
2023-12-10T10:19:08,42.805,6.029,CST-1368DR,4088,4237,10980,01.409,553
2023-12-10T10:22:09,42.805,6.029,CST-1368DR,4088,4220,10938,01.424,553
2023-12-10T10:25:11,42.805,6.029,CST-1368DR,4088,4223,10944,01.422,553
2023-12-10T10:28:12,42.805,6.029,CST-1368DR,4088,4221,10939,01.424,553
2023-12-10T10:31:14,42.805,6.029,CST-1368DR,4088,4220,10936,01.425,553
2023-12-10T10:34:15,42.805,6.029,CST-1368DR,4088,4215,10923,01.430,553
2023-12-10T10:37:17,42.805,6.029,CST-1368DR,4088,4220,10937,01.425,553
2023-12-10T10:40:19,42.805,6.029,CST-1368DR,4088,4220,10936,01.425,553
2023-12-10T10:43:20,42.805,6.029,CST-1368DR,4088,4223,10946,01.421,553
2023-12-10T10:46:22,42.805,6.029,CST-1368DR,4088,4227,10956,01.418,553
2023-12-10T10:49:23,42.805,6.029,CST-1368DR,4088,4219,10934,01.426,553
2023-12-10T10:52:25,42.805,6.029,CST-1368DR,4088,4221,10939,01.424,553
2023-12-10T10:55:27,42.805,6.029,CST-1368DR,4088,4221,10940,01.423,553
2023-12-10T10:58:28,42.805,6.029,CST-1368DR,4088,4222,10943,01.422,553
2023-12-10T11:01:30,42.805,6.029,CST-1368DR,4088,4216,10926,01.429,553
2023-12-10T11:04:31,42.805,6.029,CST-1368DR,4088,4221,10939,01.424,553
2023-12-10T11:07:33,42.805,6.029,CST-1368DR,4088,4236,10978,01.410,553
2023-12-10T11:10:34,42.805,6.029,CST-1368DR,4088,4223,10944,01.422,553
2023-12-10T11:13:36,42.805,6.029,CST-1368DR,4088,4219,10935,01.425,553
2023-12-10T11:16:38,42.805,6.029,CST-1368DR,4088,4223,10944,01.422,553
2023-12-10T11:19:39,42.805,6.029,CST-1368DR,4088,4223,10946,01.421,553
2023-12-10T11:22:41,42.805,6.029,CST-1368DR,4088,4219,10935,01.425,553
2023-12-10T11:25:42,42.805,6.029,CST-1368DR,4088,4220,10937,01.425,553
2023-12-10T11:28:44,42.805,6.029,CST-1368DR,4088,4220,10938,01.424,553
2023-12-10T11:31:46,42.805,6.029,CST-1368DR,4088,4223,10944,01.422,553
2023-12-10T11:34:47,42.805,6.029,CST-1368DR,4088,4219,10934,01.426,553
2023-12-10T11:37:49,42.805,6.029,CST-1368DR,4088,4219,10935,01.425,553
2023-12-10T11:40:51,42.805,6.029,CST-1368DR,4088,4219,10935,01.425,553
2023-12-10T11:43:52,42.805,6.029,CST-1368DR,4088,4220,10937,01.425,553
2023-12-10T11:46:54,42.805,6.029,CST-1368DR,4088,4220,10937,01.425,553
2023-12-10T11:49:55,42.805,6.029,CST-1368DR,4088,4222,10942,01.423,553
2023-12-10T11:52:57,42.805,6.029,CST-1368DR,4088,4221,10941,01.423,553
2023-12-10T11:55:59,42.805,6.029,CST-1368DR,4088,4219,10935,01.425,553
2023-12-10T11:59:00,42.805,6.029,CST-1368DR,4088,4224,10946,01.421,553
2023-12-10T12:02:02,42.805,6.029,CST-1368DR,4088,4221,10939,01.424,553
2023-12-10T12:05:03,42.805,6.029,CST-1368DR,4088,4237,10981,01.409,553
2023-12-10T12:08:05,42.805,6.029,CST-1368DR,4088,4221,10940,01.423,553
2023-12-10T12:11:06,42.805,6.029,CST-1368DR,4088,4220,10938,01.424,553
2023-12-10T12:14:08,42.805,6.029,CST-1368DR,4088,4217,10930,01.427,553
2023-12-10T12:17:10,42.805,6.029,CST-1368DR,4088,4221,10939,01.424,553
2023-12-10T12:20:11,42.805,6.029,CST-1368DR,4088,4218,10933,01.426,553
2023-12-10T12:23:13,42.805,6.029,CST-1368DR,4088,4220,10936,01.425,553
2023-12-10T12:26:14,42.805,6.029,CST-1368DR,4088,4220,10937,01.425,553
2023-12-10T12:29:16,42.805,6.029,CST-1368DR,4088,4221,10940,01.423,553
2023-12-10T12:32:17,42.805,6.029,CST-1368DR,4088,4220,10937,01.425,553
2023-12-10T12:35:19,42.805,6.029,CST-1368DR,4088,4219,10935,01.425,553
2023-12-10T12:38:21,42.805,6.029,CST-1368DR,4088,4224,10948,01.421,553
2023-12-10T12:41:22,42.805,6.029,CST-1368DR,4088,4225,10949,01.420,553
2023-12-10T12:44:24,42.805,6.029,CST-1368DR,4088,4223,10945,01.422,553
2023-12-10T12:47:25,42.805,6.029,CST-1368DR,4088,4236,10978,01.410,553
2023-12-10T12:50:27,42.805,6.029,CST-1368DR,4088,4233,10970,01.413,552
2023-12-10T12:53:29,42.805,6.029,CST-1368DR,4088,4232,10968,01.413,552
2023-12-10T12:56:30,42.805,6.029,CST-1368DR,4088,4232,10968,01.413,553
2023-12-10T12:59:32,42.805,6.029,CST-1368DR,4088,4233,10971,01.412,553
2023-12-10T13:02:33,42.805,6.029,CST-1368DR,4088,4237,10981,01.409,553
2023-12-10T13:05:35,42.805,6.029,CST-1368DR,4088,4232,10969,01.413,553
2023-12-10T13:08:36,42.805,6.029,CST-1368DR,4088,4225,10951,01.419,553
2023-12-10T13:11:38,42.805,6.029,CST-1368DR,4088,4231,10965,01.414,553
2023-12-10T13:14:40,42.805,6.029,CST-1368DR,4088,4227,10954,01.418,553
2023-12-10T13:17:41,42.805,6.029,CST-1368DR,4088,4232,10969,01.413,553
2023-12-10T13:20:43,42.805,6.029,CST-1368DR,4088,4226,10952,01.419,553
2023-12-10T13:23:44,42.805,6.029,CST-1368DR,4088,4231,10967,01.414,553
2023-12-10T13:26:46,42.805,6.029,CST-1368DR,4088,4229,10961,01.416,553
2023-12-10T13:29:48,42.805,6.029,CST-1368DR,4088,4229,10961,01.416,553
2023-12-10T13:32:50,42.805,6.029,CST-1368DR,4088,4220,10938,01.424,553
2023-12-10T13:35:52,42.805,6.029,CST-1368DR,4088,4237,10982,01.408,553
2023-12-10T13:38:53,42.805,6.029,CST-1368DR,4088,4237,10980,01.409,553
2023-12-10T13:41:55,42.805,6.029,CST-1368DR,4088,4222,10942,01.423,553
2023-12-10T13:44:57,42.805,6.029,CST-1368DR,4088,4226,10952,01.419,553
2023-12-10T13:47:58,42.805,6.029,CST-1368DR,4088,4237,10980,01.409,553
2023-12-10T13:51:00,42.805,6.029,CST-1368DR,4088,4237,10980,01.409,553
2023-12-10T13:54:01,42.805,6.029,CST-1368DR,4088,4226,10952,01.419,553
2023-12-10T13:57:03,42.805,6.029,CST-1368DR,4088,4236,10979,01.409,553
2023-12-10T14:00:05,42.805,6.029,CST-1368DR,4088,4228,10958,01.417,553
2023-12-10T14:03:06,42.805,6.029,CST-1368DR,4088,4236,10978,01.410,553
2023-12-10T14:06:08,42.805,6.029,CST-1368DR,4088,4217,10929,01.428,553
2023-12-10T14:09:09,42.805,6.029,CST-1368DR,4088,4221,10940,01.423,553
2023-12-10T14:12:11,42.805,6.029,CST-1368DR,4088,4217,10930,01.427,553
2023-12-10T14:15:12,42.805,6.029,CST-1368DR,4088,4231,10966,01.414,553
2023-12-10T14:18:14,42.805,6.029,CST-1368DR,4088,4227,10954,01.418,553
2023-12-10T14:21:16,42.805,6.029,CST-1368DR,4088,4214,10922,01.430,553
2023-12-10T14:24:17,42.805,6.029,CST-1368DR,4088,4222,10943,01.422,553
2023-12-10T14:27:19,42.805,6.029,CST-1368DR,4088,4229,10960,01.416,553
2023-12-10T14:30:20,42.805,6.029,CST-1368DR,4088,4230,10963,01.415,553
2023-12-10T14:33:22,42.805,6.029,CST-1368DR,4088,4234,10974,01.411,553
2023-12-10T14:36:23,42.805,6.029,CST-1368DR,4088,4239,10987,01.406,553
2023-12-10T14:39:25,42.805,6.029,CST-1368DR,4088,4233,10970,01.413,553
2023-12-10T14:42:27,42.805,6.029,CST-1368DR,4088,4208,10906,01.436,553
2023-12-10T14:45:28,42.805,6.029,CST-1368DR,4088,4216,10926,01.429,553
2023-12-10T14:48:30,42.805,6.029,CST-1368DR,4088,4233,10970,01.413,553
2023-12-10T14:51:31,42.805,6.029,CST-1368DR,4088,4227,10955,01.418,553
2023-12-10T14:54:33,42.805,6.029,CST-1368DR,4088,4220,10937,01.425,553
2023-12-10T14:57:35,42.805,6.029,CST-1368DR,4088,4236,10980,01.409,553
2023-12-10T15:00:36,42.805,6.029,CST-1368DR,4088,4235,10976,01.410,553
2023-12-10T15:03:38,42.805,6.029,CST-1368DR,4088,4236,10978,01.410,553
2023-12-10T15:06:39,42.805,6.029,CST-1368DR,4088,4236,10978,01.410,553
2023-12-10T15:09:41,42.805,6.029,CST-1368DR,4088,4239,10987,01.406,553
2023-12-10T15:12:42,42.805,6.029,CST-1368DR,4088,4224,10948,01.421,553
2023-12-10T15:15:44,42.805,6.029,CST-1368DR,4088,4226,10952,01.419,553
2023-12-10T15:18:46,42.805,6.029,CST-1368DR,4088,4216,10928,01.428,553
2023-12-10T15:21:47,42.805,6.029,CST-1368DR,4088,4239,10987,01.406,553
2023-12-10T15:24:49,42.805,6.029,CST-1368DR,4088,4221,10940,01.423,553
2023-12-10T15:27:50,42.805,6.029,CST-1368DR,4088,4234,10974,01.411,553
2023-12-10T15:30:53,42.805,6.029,CST-1368DR,4088,4231,10965,01.414,553
2023-12-10T15:33:55,42.805,6.029,CST-1368DR,4088,4233,10972,01.412,553
2023-12-10T15:36:57,42.805,6.029,CST-1368DR,4088,4231,10965,01.414,553
2023-12-10T15:39:58,42.805,6.029,CST-1368DR,4088,4239,10985,01.407,553
2023-12-10T15:43:00,42.805,6.029,CST-1368DR,4088,4235,10976,01.410,553
2023-12-10T15:46:01,42.805,6.029,CST-1368DR,4088,4234,10973,01.411,553
2023-12-10T15:49:03,42.805,6.029,CST-1368DR,4088,4234,10973,01.411,553
2023-12-10T15:52:04,42.805,6.029,CST-1368DR,4088,4237,10981,01.409,553
2023-12-10T15:55:06,42.805,6.029,CST-1368DR,4088,4240,10989,01.406,553
2023-12-10T15:58:08,42.805,6.029,CST-1368DR,4088,4233,10971,01.412,553
2023-12-10T16:01:09,42.805,6.029,CST-1368DR,4088,4230,10963,01.415,553
2023-12-10T16:04:11,42.805,6.029,CST-1368DR,4088,4233,10970,01.413,553
2023-12-10T16:07:12,42.805,6.029,CST-1368DR,4088,4236,10978,01.410,553
2023-12-10T16:10:14,42.805,6.029,CST-1368DR,4088,4235,10976,01.410,553
2023-12-10T16:13:16,42.805,6.029,CST-1368DR,4088,4234,10973,01.411,553
2023-12-10T16:16:17,42.805,6.029,CST-1368DR,4088,4236,10979,01.409,553
2023-12-10T16:19:19,42.805,6.029,CST-1368DR,4088,4236,10978,01.410,553
2023-12-10T16:22:20,42.805,6.029,CST-1368DR,4088,4230,10962,01.415,553
2023-12-10T16:25:22,42.805,6.029,CST-1368DR,4088,4233,10971,01.412,553
2023-12-10T16:28:23,42.805,6.029,CST-1368DR,4088,4236,10978,01.410,553
2023-12-10T16:31:25,42.805,6.029,CST-1368DR,4088,4230,10963,01.415,553
2023-12-10T16:34:27,42.805,6.029,CST-1368DR,4088,4236,10978,01.410,553
2023-12-10T16:37:28,42.805,6.029,CST-1368DR,4088,4234,10974,01.411,553